Back to catalog

COSMOS 2449

GLONASS

AliveNavigationMEO
NORAD 33467·PAYLOAD·🇷🇺 Russia

Launched Dec 25, 2008 from Baikonur Cosmodrome

Loading…

Next Passes (next 24 hours)

TLE

FreshSource: Space-Track

Epoch: Sep 10, 2026, 07:02 UTC

1 33467U 08067B   26253.29307247  .00000011  00000-0  00000-0 0  9998
2 33467  64.8656  66.3346 0032943 235.4620 124.2631  2.13096687137777

Track COSMOS 2449 in real time with AllMySat

Download on the App Store